Regional Weather Roundup
Issued by NWS

Home | Current Version | Previous Version | Graphics & Text | Print | Product List | Glossary On
Versions: 1 2 3 4 5 6 7 8 9 10 11 12 13 14 15 16 17 18 19 20 21 22 23 24 25 26 27 28 29 30 31 32 33 34 35 36 37 38 39 40 41 42 43 44 45 46 47 48 49 50
000
ASUS43 KFSD 281210
RWRSD

WEATHER ROUNDUP FOR SOUTH DAKOTA
NATIONAL WEATHER SERVICE SIOUX FALLS SD
700 AM CDT TUE APR 28 2015

NOTE: "FAIR" INDICATES FEW OR NO CLOUDS BELOW 12,000 FEET WITH NO
SIGNIFICANT WEATHER AND/OR OBSTRUCTIONS TO VISIBILITY.


SDZ001>005-009-010-012>017-281300-
NORTHWEST AND NORTH CENTRAL SOUTH DAKOTA

CITY           SKY/WX    TMP DP  RH WIND       PRES   REMARKS
BUFFALO          N/A     33  31  92 CALM      30.26S
FAITH            N/A     35  31  85 W6        30.33S
MOBRIDGE       CLEAR     35  33  92 N5        30.31S FOG
$$

SDZ012>016-024>037-041>051-057-063-072>074-281300-
SOUTHWEST AND SOUTH CENTRAL SOUTH DAKOTA

CITY           SKY/WX    TMP DP  RH WIND       PRES   REMARKS
RAPID CTY ARPT PTCLDY    33  31  92 NW5       30.33S WCI  29
PIERRE         CLOUDY    44  41  89 NW8       30.32R
CUSTER         CLEAR     33  31  92 NW5       30.32S WCI  29
ELLSWORTH AFB  CLEAR     35  34  94 CALM      30.33S
PHILIP         CLEAR     32  30  92 W7        30.35R WCI  26
PINE RIDGE     CLOUDY    44  41  89 CALM      30.34S
SPEARFISH      MOCLDY    36  34  93 MISG      30.33S
WINNER         FAIR      44  39  82 NW12      30.32R
$$

SDZ004>011-016>023-039-040-281300-
NORTHEAST SOUTH DAKOTA

CITY           SKY/WX    TMP DP  RH WIND       PRES   REMARKS
ABERDEEN       CLEAR     44  41  89 N10       30.30R
WATERTOWN      CLOUDY    47  43  86 N14       30.25R
BROOKINGS      MOCLDY    48  43  81 N9        30.23S
SISSETON         N/A     46  45  96 N10       30.26R
$$

SDZ017-020-022-023-036>040-048>070-281300-
SOUTHEAST SOUTH DAKOTA

CITY           SKY/WX    TMP DP  RH WIND       PRES   REMARKS
SIOUX FALLS    MOCLDY    39  32  76 CALM      30.22R
HURON          CLOUDY    47  43  86 N10       30.28R
CHAMBERLAIN    CLOUDY    46  42  88 NW8       30.30R
MITCHELL       CLOUDY    48  44  86 NW14      30.27S
YANKTON        PTCLDY    45  39  81 W9        30.24R
$$

ABBREVIATIONS USED IN REMARKS
   TC - TEMPERATURE IN CELSIUS
  WCI - WIND CHILL INDEX
   HX - HEAT INDEX
  VSB - VISIBILITY



USA.gov is the U.S. government's official web portal to all federal, state and local government web resources and services.